Weather History for Rochester, NY

Change the Weather History Date:

Friday, November 23, 2012

  Actual Average Record
Temperature  
Mean Temperature 45 °F 38 °F  
Max Temperature 54 °F 45 °F 74 °F (1931)
Min Temperature 36 °F 31 °F 5 °F (1971)
Degree Days  
Heating Degree Days 20 27  
Month to date heating degree days 549 534  
Since 1 July heating degree days 1075 1167  
Cooling Degree Days 0 0  
Month to date cooling degree days 0 0  
Year to date cooling degree days 802 539  
Moisture  
Dew Point 33 °F    
Average Humidity 60    
Maximum Humidity 76    
Minimum Humidity 44    
Precipitation  
Precipitation T in 0.11 in 1.15 in (1887)
Month to date precipitation 0.65 2.25  
Year to date precipitation 30.52 30.95  
Snow  
Snow T in 0.30 in 4.20 in (1917)
Month to date snowfall 0.2 4.5  
Since 1 July snowfall 0.2 4.6  
Since 1 September snowfall 0.2 4.6  
Snow Depth 0.00 in    
Sea Level Pressure  
Sea Level Pressure 29.75 in    
Wind  
Wind Speed 17 mph (SW)    
Max Wind Speed 30 mph    
Max Gust Speed 40 mph    
Visibility 10 miles    
Events Rain , Snow    
T = Trace of Precipitation, MM = Missing Value Source: NWS Daily Summary

Daily Weather History Graph

Daily Weather History Graph

Search for Another Location

Airport:

Trip Planner

Search our weather history database for the weather conditions in past years. The results will help you decide how hot, cold, wet, or windy it might be!

Date:

Astronomy

Nov. 23, 2012 Rise Set
Actual Time 7:13 AM EST 4:40 PM EST
Civil Twilight 6:42 AM EST 5:11 PM EST
Nautical Twilight 6:07 AM EST 5:46 PM EST
Astronomical Twilight 5:33 AM EST 6:20 PM EST
Moon 1:59 PM EST (11/23) 2:24 AM EST (11/23)
Length of Visible Light 10h 28m
Length of Day
9h 26m
Waxing Gibbous, 79% of the Moon is Illuminated
Nov 23
Waxing Gibbous
Nov 28
Full
Dec 6
Last Quarter
Dec 13
New
Dec 20
First Quarter

Hourly Weather History & Observations

Time (EST) Temp. Windchill Dew Point Humidity Pressure Visibility Wind Dir Wind Speed Gust Speed Precip Events Conditions
12:54 AM 44.1 °F 40.8 °F 30.0 °F 58% 29.96 in 10.0 mi South 5.8 mph - N/A   Partly Cloudy
1:54 AM 45.0 °F 41.2 °F 28.9 °F 53% 29.93 in 10.0 mi South 6.9 mph - N/A   Partly Cloudy
2:54 AM 46.9 °F - 28.9 °F 50% 29.88 in 10.0 mi South 10.4 mph - N/A   Partly Cloudy
3:54 AM 48.0 °F - 30.0 °F 50% 29.86 in 10.0 mi South 11.5 mph - N/A   Partly Cloudy
4:54 AM 51.1 °F - 30.0 °F 44% 29.82 in 10.0 mi SSW 13.8 mph - N/A   Scattered Clouds
5:54 AM 51.1 °F - 30.9 °F 46% 29.79 in 10.0 mi South 12.7 mph 23.0 mph N/A   Scattered Clouds
6:54 AM 51.8 °F - 30.2 °F 44% 29.75 in 10.0 mi SSW 13.8 mph 21.9 mph N/A   Mostly Cloudy
7:54 AM 50.0 °F - 32.0 °F 50% 29.75 in 10.0 mi SSW 11.5 mph - N/A   Mostly Cloudy
8:54 AM 52.0 °F - 33.1 °F 49% 29.73 in 10.0 mi SSW 17.3 mph 24.2 mph N/A   Mostly Cloudy
9:54 AM 54.0 °F - 34.0 °F 47% 29.72 in 10.0 mi SSW 13.8 mph 24.2 mph N/A   Overcast
10:25 AM 53.6 °F - 35.6 °F 51% 29.71 in 10.0 mi SSW 11.5 mph 21.9 mph N/A   Overcast
10:54 AM 53.1 °F - 41.0 °F 64% 29.71 in 10.0 mi SW 20.7 mph 26.5 mph 0.00 in Rain Light Rain
11:54 AM 53.1 °F - 43.0 °F 69% 29.68 in 10.0 mi SSW 20.7 mph 25.3 mph 0.00 in Rain Light Rain
12:54 PM 53.1 °F - 44.1 °F 71% 29.67 in 10.0 mi SW 18.4 mph 24.2 mph 0.00 in   Overcast
1:54 PM 54.0 °F - 42.1 °F 64% 29.66 in 10.0 mi SW 16.1 mph - N/A   Mostly Cloudy
2:07 PM 51.8 °F - 42.8 °F 71% 29.65 in 10.0 mi West 20.7 mph 35.7 mph 0.00 in Rain Light Rain
2:28 PM 50.0 °F - 41.0 °F 71% 29.66 in 10.0 mi WSW 19.6 mph 28.8 mph 0.00 in   Mostly Cloudy
2:54 PM 50.0 °F - 39.9 °F 68% 29.66 in 10.0 mi WSW 19.6 mph 26.5 mph 0.00 in   Mostly Cloudy
3:54 PM 48.0 °F - 35.1 °F 61% 29.68 in 10.0 mi WSW 21.9 mph 31.1 mph N/A   Scattered Clouds
4:54 PM 46.0 °F 38.8 °F 32.0 °F 58% 29.70 in 10.0 mi West 18.4 mph 32.2 mph N/A   Scattered Clouds
5:54 PM 44.1 °F 37.4 °F 32.0 °F 63% 29.70 in 10.0 mi WSW 13.8 mph 24.2 mph N/A   Scattered Clouds
6:54 PM 44.1 °F 35.4 °F 30.9 °F 60% 29.69 in 10.0 mi WSW 21.9 mph 31.1 mph N/A   Overcast
7:54 PM 41.0 °F 30.0 °F 30.9 °F 67% 29.72 in 10.0 mi West 28.8 mph 40.3 mph N/A   Mostly Cloudy
8:54 PM 37.9 °F 27.6 °F 30.9 °F 76% 29.74 in 10.0 mi WSW 20.7 mph 29.9 mph 0.00 in   Mostly Cloudy
9:05 PM 37.4 °F 26.9 °F 30.2 °F 75% 29.73 in 10.0 mi WSW 20.7 mph 28.8 mph N/A   Mostly Cloudy
9:54 PM 37.0 °F 26.4 °F 27.0 °F 67% 29.75 in 10.0 mi WSW 20.7 mph 34.5 mph 0.00 in Snow Light Snow
10:54 PM 36.0 °F 26.7 °F 24.1 °F 62% 29.74 in 10.0 mi WSW 15.0 mph 29.9 mph 0.00 in   Overcast
11:54 PM 36.0 °F 24.7 °F 23.0 °F 59% 29.74 in 10.0 mi WSW 21.9 mph 32.2 mph N/A   Overcast